LiveATC.Net - Listen to live air traffic control over the Internet!


ICAO: KHYS  IATA: HYS   Airport: Hays Regional Airport
City: Hays   State/Province: Kansas
Country: United States   Continent: North America
KHYS METAR Weather: KHYS 151856Z AUTO 17009KT 10SM CLR 33/20 A2994 RMK AO2 SLP119 T03280200
KHYS Flight Activity (FlightAware)
KHYS Airport Info   (iFlightPlanner)
KHYS VFR Sectional Chart   (iFlightPlanner) 
KHYS IFR Low Chart   (iFlightPlanner) 

KHYS CTAF
Feed Status: UP   Listeners: 0
Listen in your browser - HTML5 player (in browser, HTML5)
Click here to listen with your own player (launches your MP3 player)
KHYS CTAF Audio Archives
FacilityFrequency
Hays CTAF122.800

NOTICE

Unauthorized use prohibited. See LiveATC.net Terms of Service


Find LiveATC Audio Streams


Airport/ARTCC Code

Frequency Search
(e.g., 124.400, 128.75)
Site-wide search
 


Browse LiveATC Feeds
Top 50 LiveATC Feeds
LiveATC Feed Map
Bad Weather Areas

LiveATC FAQ
Offer LiveATC feed
Contact LiveATC.net
Press Inquiries

LiveATC on iPhone
LiveATC on Android

Windows Phone
Windows 8/10

LiveATC Mobile
(Mobile browser)

ATC Audio Archives
Interesting Recordings

LiveATC Forums


Home Page
About LiveATC.net
Make a Donation
Terms of Use
Privacy Policy

Canadian Air Freqs

AIRMETs/SIGMETs

FAA Airport Status
Nat'l Airspace Status
Arrival Demand Charts


Server Software By:
Icecast.org
Liquidsoap